Weather History for Oxford, CT

Change the Weather History Date:

Tuesday, March 25, 2014

  Actual Average Record
Temperature  
Mean Temperature 24 °F -  
Max Temperature 33 °F 46 °F 53 °F (2003)
Min Temperature 14 °F 30 °F 14 °F (2014)
Degree Days  
Heating Degree Days 42    
Moisture  
Dew Point 7 °F    
Average Humidity 50    
Maximum Humidity 62    
Minimum Humidity 38    
Precipitation  
Precipitation 0.00 in - - ()
Sea Level Pressure  
Sea Level Pressure 30.04 in    
Wind  
Wind Speed 4 mph (SE)    
Max Wind Speed 12 mph    
Max Gust Speed 17 mph    
Visibility 10 miles    
Events      
Averages and records for this station are not official NWS values.
T = Trace of Precipitation, MM = Missing Value Source: NWS Daily Summary

Daily Weather History Graph

Daily Weather History Graph

Search for Another Location

Airport:

Trip Planner

Search our weather history database for the weather conditions in past years. The results will help you decide how hot, cold, wet, or windy it might be!

Date:

Astronomy

Mar. 25, 2014 Rise Set
Actual Time 6:47 AM EDT 7:10 PM EDT
Civil Twilight 6:19 AM EDT 7:37 PM EDT
Nautical Twilight 5:47 AM EDT 8:10 PM EDT
Astronomical Twilight 5:13 AM EDT 8:44 PM EDT
Moon 3:10 AM EDT (3/25) 1:34 PM EDT (3/25)
Length of Visible Light 13h 18m
Length of Day
12h 22m
Waning Crescent, 32% of the Moon is Illuminated
Mar 25
Waning Crescent
Mar 30
New
Apr 7
First Quarter
Apr 15
Full
Apr 22
Last Quarter

Hourly Weather History & Observations

Time (EDT) Temp. Windchill Dew Point Humidity Pressure Visibility Wind Dir Wind Speed Gust Speed Precip Events Conditions
12:15 AM 19.4 °F 14.3 °F 3.2 °F 49% 30.14 in 10.0 mi NNW 3.5 mph - N/A   Clear
12:35 AM 17.6 °F 9.3 °F 1.4 °F 49% 30.14 in 10.0 mi North 5.8 mph - N/A   Clear
12:55 AM 17.6 °F 9.3 °F 3.2 °F 53% 30.14 in 10.0 mi North 5.8 mph - N/A   Clear
1:15 AM 17.6 °F 10.7 °F 1.4 °F 49% 30.13 in 10.0 mi North 4.6 mph - N/A   Clear
1:35 AM 19.4 °F - 3.2 °F 49% 30.14 in 10.0 mi Calm Calm - N/A   Clear
1:55 AM 19.4 °F 12.8 °F 1.4 °F 46% 30.13 in 10.0 mi North 4.6 mph - N/A   Clear
2:15 AM 17.6 °F - 3.2 °F 53% 30.13 in 10.0 mi Calm Calm - N/A   Clear
2:35 AM 17.6 °F - 3.2 °F 53% 30.12 in 4.0 mi Calm Calm - N/A   Clear
2:55 AM 15.8 °F - 3.2 °F 58% 30.12 in 10.0 mi Calm Calm - N/A   Clear
3:15 AM 15.8 °F - 3.2 °F 58% 30.11 in 10.0 mi Calm Calm - N/A   Clear
3:35 AM 15.8 °F - 3.2 °F 58% 30.12 in 10.0 mi Calm Calm - N/A   Clear
3:55 AM 15.8 °F - 1.4 °F 53% 30.11 in 10.0 mi Calm Calm - N/A   Clear
4:15 AM 14.0 °F 8.2 °F 3.2 °F 62% 30.11 in 10.0 mi SE 3.5 mph - N/A   Clear
4:35 AM 15.8 °F - 3.2 °F 58% 30.11 in 10.0 mi Calm Calm - N/A   Clear
4:55 AM 15.8 °F 8.6 °F 3.2 °F 58% 30.10 in 10.0 mi SSE 4.6 mph - N/A   Clear
5:15 AM 17.6 °F 12.3 °F 3.2 °F 53% 30.10 in 10.0 mi SSE 3.5 mph - N/A   Clear
5:35 AM 15.8 °F - 3.2 °F 58% 30.11 in 10.0 mi Calm Calm - N/A   Clear
5:45 AM 15.8 °F - 3.2 °F 58% 30.11 in 10.0 mi Calm Calm - N/A   Clear
6:45 AM 14.0 °F - 1.4 °F 57% 30.12 in 10.0 mi Calm Calm - N/A   Scattered Clouds
7:45 AM 19.4 °F - 6.8 °F 58% 30.11 in 10.0 mi Calm Calm - N/A   Mostly Cloudy
8:45 AM 24.8 °F 17.9 °F 10.4 °F 54% 30.10 in 10.0 mi South 5.8 mph - N/A   Partly Cloudy
9:45 AM 26.6 °F 18.2 °F 10.4 °F 51% 30.12 in 10.0 mi SSW 8.1 mph - N/A   Partly Cloudy
10:55 AM 30.2 °F 23.4 °F 10.4 °F 44% 30.08 in 10.0 mi SW 6.9 mph - N/A   Partly Cloudy
11:55 AM 32.0 °F 23.0 °F 10.4 °F 41% 30.08 in 10.0 mi WSW 11.5 mph 17.3 mph N/A   Partly Cloudy
12:55 PM 33.8 °F 25.3 °F 10.4 °F 38% 30.09 in 10.0 mi SW 11.5 mph 17.3 mph N/A   Mostly Cloudy
1:55 PM 33.8 °F 25.3 °F 10.4 °F 38% 30.06 in 10.0 mi SSW 11.5 mph - N/A   Overcast
2:55 PM 33.8 °F 25.3 °F 12.2 °F 41% 30.03 in 10.0 mi South 11.5 mph - N/A   Overcast
3:55 PM 33.8 °F 25.3 °F 12.2 °F 41% 30.01 in 10.0 mi SW 11.5 mph - N/A   Overcast
4:52 PM 33.8 °F 26.4 °F 14.0 °F 44% 29.98 in 10.0 mi South 9.2 mph - N/A   Mostly Cloudy
5:52 PM 32.0 °F 26.4 °F 12.2 °F 44% 29.95 in 10.0 mi SSE 5.8 mph - N/A   Scattered Clouds
6:52 PM 30.2 °F - 12.2 °F 47% 29.92 in 10.0 mi Calm Calm - N/A   Overcast
7:52 PM 30.2 °F 25.4 °F 12.2 °F 47% 29.94 in 10.0 mi SE 4.6 mph - N/A   Overcast
8:52 PM 30.2 °F 26.7 °F 12.2 °F 47% 29.94 in 10.0 mi ESE 3.5 mph - N/A   Overcast
9:15 PM 30.2 °F 26.7 °F 12.2 °F 47% 29.95 in 10.0 mi ESE 3.5 mph - N/A   Overcast
9:35 PM 30.2 °F 25.4 °F 12.2 °F 47% 29.95 in 10.0 mi ESE 4.6 mph - N/A   Overcast
9:55 PM 30.2 °F 25.4 °F 12.2 °F 47% 29.94 in 10.0 mi ESE 4.6 mph - N/A   Overcast
10:15 PM 30.2 °F 26.7 °F 10.4 °F 44% 29.93 in 10.0 mi ENE 3.5 mph - N/A   Overcast
10:35 PM 28.4 °F 22.2 °F 10.4 °F 47% 29.91 in 10.0 mi East 5.8 mph - N/A   Overcast
10:55 PM 28.4 °F 21.2 °F 10.4 °F 47% 29.89 in 10.0 mi NNE 6.9 mph - N/A   Overcast
11:15 PM 28.4 °F 22.2 °F 10.4 °F 47% 29.88 in 10.0 mi NE 5.8 mph - N/A   Overcast
11:35 PM 28.4 °F 21.2 °F 12.2 °F 51% 29.87 in 10.0 mi North 6.9 mph - N/A   Overcast
11:55 PM 28.4 °F 20.4 °F 12.2 °F 51% 29.86 in 10.0 mi North 8.1 mph - N/A   Overcast